• In Belgium
  • List of Countries
  • For 7 days
  • Water Temperature
  • Satellite Maps
  • Weather Map
  • Weather Widgets
  • user-avatar
    Login

    Hourly Weather Batakan

    Today, 23 October, Tuesday

    Time Temperature Precipitation Wind Pressure Humidity
    00:00 +2°C° 0.1 mm 1 mps 685 mmHg 93%
    01:00 +2°C° 0.1 mm 1 mps 685 mmHg 93%
    02:00 +1°C° 0 mm 1 mps 686 mmHg 92%
    03:00 +1°C° 0.2 mm 1 mps 686 mmHg 92%
    04:00 +1°C° 0.2 mm 1 mps 686 mmHg 92%
    05:00 +1°C° 0.2 mm 1 mps 686 mmHg 92%
    06:00 +1°C° 0.2 mm 1 mps 686 mmHg 92%
    07:00 +1°C° 0.2 mm 1 mps 686 mmHg 91%
    08:00 +1°C° 0.2 mm 1 mps 686 mmHg 91%
    09:00 +1°C° 0 mm 2 mps 687 mmHg 87%
    10:00 +1°C° 0 mm 2 mps 687 mmHg 83%
    11:00 +2°C° 0 mm 2 mps 687 mmHg 79%
    12:00 +2°C° 0 mm 2 mps 687 mmHg 77%
    13:00 +2°C° 0 mm 2 mps 687 mmHg 75%
    14:00 +2°C° 0 mm 3 mps 687 mmHg 73%
    15:00 +2°C° 0 mm 2 mps 687 mmHg 75%
    16:00 +1°C° 0 mm 2 mps 687 mmHg 78%
    17:00 +2°C° 0 mm 1 mps 687 mmHg 80%
    18:00 +1°C° 0 mm 1 mps 687 mmHg 83%
    19:00 0°C° 0 mm 1 mps 688 mmHg 86%
    20:00 -1°C° 0 mm 1 mps 688 mmHg 89%
    21:00 -1°C° 0 mm 1 mps 688 mmHg 89%
    22:00 -1°C° 0 mm 1 mps 688 mmHg 90%
    23:00 -1°C° 0 mm 1 mps 688 mmHg 90%

    Tomorrow, 24 October, Wednesday

    Time Temperature Precipitation Wind Pressure Humidity
    00:00 -1°C° 0 mm 1 mps 689 mmHg 90%
    01:00 -1°C° 0 mm 1 mps 689 mmHg 90%
    02:00 -2°C° 0 mm 1 mps 689 mmHg 91%
    03:00 -2°C° 0 mm 1 mps 689 mmHg 91%
    04:00 -2°C° 0 mm 1 mps 689 mmHg 91%
    05:00 -2°C° 0 mm 1 mps 689 mmHg 91%
    06:00 -2°C° 0 mm 1 mps 690 mmHg 88%
    07:00 -1°C° 0 mm 1 mps 690 mmHg 86%
    08:00 -1°C° 0 mm 1 mps 691 mmHg 84%
    09:00 +1°C° 0 mm 1 mps 691 mmHg 75%
    10:00 +2°C° 0 mm 1 mps 691 mmHg 66%
    11:00 +4°C° 0 mm 1 mps 691 mmHg 58%
    12:00 +4°C° 0 mm 1 mps 691 mmHg 55%
    13:00 +5°C° 0 mm 1 mps 691 mmHg 53%
    14:00 +5°C° 0 mm 1 mps 691 mmHg 51%
    15:00 +4°C° 0 mm 1 mps 691 mmHg 58%
    16:00 +2°C° 0 mm 1 mps 691 mmHg 65%
    17:00 -1°C° 0 mm 0 mps 691 mmHg 72%
    18:00 -1°C° 0 mm 0 mps 692 mmHg 74%
    19:00 -2°C° 0 mm 0 mps 692 mmHg 76%
    20:00 -2°C° 0 mm 0 mps 692 mmHg 77%
    21:00 -2°C° 0 mm 0 mps 692 mmHg 77%
    22:00 -2°C° 0 mm 0 mps 692 mmHg 77%
    23:00 -2°C° 0 mm 0 mps 692 mmHg 77%

    Day after tomorrow, 25 October, Thursday

    Time Temperature Precipitation Wind Pressure Humidity
    00:00 -1°C° 0 mm 1 mps 692 mmHg 77%
    01:00 -1°C° 0 mm 1 mps 692 mmHg 78%
    02:00 -1°C° 0 mm 1 mps 692 mmHg 78%
    03:00 -1°C° 0 mm 1 mps 692 mmHg 78%
    04:00 -1°C° 0 mm 1 mps 691 mmHg 78%
    05:00 -1°C° 0 mm 1 mps 691 mmHg 78%
    06:00 -3°C° 0 mm 2 mps 691 mmHg 77%
    07:00 -2°C° 0 mm 2 mps 691 mmHg 75%
    08:00 -2°C° 0 mm 2 mps 691 mmHg 74%
    09:00 -2°C° 0.2 mm 3 mps 691 mmHg 72%
    10:00 -1°C° 0.2 mm 3 mps 690 mmHg 71%
    11:00 -2°C° 0.2 mm 4 mps 690 mmHg 69%
    12:00 -2°C° 0.3 mm 4 mps 690 mmHg 70%
    13:00 -1°C° 0.3 mm 5 mps 689 mmHg 70%
    14:00 -1°C° 0.3 mm 5 mps 689 mmHg 70%
    15:00 -2°C° 0.7 mm 5 mps 689 mmHg 74%
    16:00 -4°C° 0.7 mm 5 mps 689 mmHg 77%
    17:00 -4°C° 0.7 mm 5 mps 689 mmHg 81%
    18:00 -4°C° 0.5 mm 5 mps 689 mmHg 81%
    19:00 -5°C° 0.5 mm 5 mps 689 mmHg 82%
    20:00 -5°C° 0.5 mm 6 mps 689 mmHg 82%
    21:00 -5°C° 0.3 mm 5 mps 689 mmHg 82%
    22:00 -5°C° 0.3 mm 5 mps 689 mmHg 82%
    23:00 -6°C° 0.3 mm 5 mps 689 mmHg 83%

    26 October, Friday

    Time Temperature Precipitation Wind Pressure Humidity
    00:00 -6°C° 0.3 mm 5 mps 689 mmHg 83%
    01:00 -6°C° 0.3 mm 5 mps 689 mmHg 84%
    02:00 -6°C° 0.3 mm 5 mps 689 mmHg 84%
    03:00 -6°C° 0.2 mm 5 mps 690 mmHg 83%
    04:00 -6°C° 0.2 mm 5 mps 690 mmHg 82%
    05:00 -7°C° 0.2 mm 5 mps 690 mmHg 81%
    06:00 -7°C° 0.1 mm 5 mps 691 mmHg 80%
    07:00 -7°C° 0.1 mm 5 mps 691 mmHg 79%
    08:00 -7°C° 0.1 mm 5 mps 692 mmHg 77%
    09:00 -6°C° 0 mm 5 mps 692 mmHg 73%
    10:00 -4°C° 0 mm 4 mps 692 mmHg 69%
    11:00 -4°C° 0 mm 4 mps 692 mmHg 64%
    12:00 -3°C° 0 mm 4 mps 692 mmHg 62%
    13:00 -3°C° 0 mm 4 mps 692 mmHg 60%
    14:00 -2°C° 0 mm 4 mps 692 mmHg 58%
    15:00 -4°C° 0 mm 3 mps 691 mmHg 63%
    16:00 -5°C° 0 mm 3 mps 691 mmHg 69%
    17:00 -5°C° 0 mm 2 mps 691 mmHg 75%
    18:00 -6°C° 0 mm 2 mps 691 mmHg 77%
    19:00 -6°C° 0 mm 2 mps 692 mmHg 80%
    20:00 -6°C° 0 mm 1 mps 692 mmHg 83%
    21:00 -6°C° 0 mm 1 mps 691 mmHg 83%
    22:00 -7°C° 0 mm 1 mps 691 mmHg 83%
    23:00 -7°C° 0 mm 1 mps 691 mmHg 83%

    27 October, Saturday

    Time Temperature Precipitation Wind Pressure Humidity
    00:00 -7°C° 0 mm 1 mps 690 mmHg 83%
    01:00 -8°C° 0 mm 1 mps 690 mmHg 82%
    02:00 -8°C° 0 mm 1 mps 690 mmHg 82%
    03:00 -8°C° 0 mm 1 mps 689 mmHg 82%
    04:00 -8°C° 0 mm 1 mps 689 mmHg 82%
    05:00 -8°C° 0 mm 1 mps 689 mmHg 82%
    06:00 -8°C° 0 mm 1 mps 689 mmHg 81%
    07:00 -8°C° 0 mm 1 mps 689 mmHg 79%
    08:00 -7°C° 0 mm 1 mps 689 mmHg 78%
    09:00 -4°C° 0 mm 1 mps 689 mmHg 73%
    10:00 -2°C° 0 mm 1 mps 688 mmHg 67%
    11:00 -1°C° 0 mm 1 mps 688 mmHg 62%
    12:00 0°C° 0 mm 1 mps 687 mmHg 63%
    13:00 -1°C° 0 mm 2 mps 687 mmHg 63%
    14:00 -1°C° 0 mm 2 mps 686 mmHg 64%
    15:00 0°C° 0 mm 1 mps 686 mmHg 71%
    16:00 -2°C° 0 mm 1 mps 686 mmHg 78%
    17:00 -3°C° 0 mm 1 mps 685 mmHg 85%
    18:00 -3°C° 0 mm 1 mps 685 mmHg 86%
    19:00 -4°C° 0 mm 0 mps 685 mmHg 88%
    20:00 -4°C° 0 mm 0 mps 685 mmHg 89%
    21:00 -4°C° 0.1 mm 0 mps 685 mmHg 90%
    22:00 -4°C° 0.1 mm 0 mps 686 mmHg 91%
    23:00 -3°C° 0.1 mm 1 mps 686 mmHg 92%

    28 October, Sunday

    Time Temperature Precipitation Wind Pressure Humidity
    00:00 -3°C° 0.2 mm 1 mps 686 mmHg 90%
    01:00 -4°C° 0.2 mm 2 mps 687 mmHg 89%
    02:00 -5°C° 0.2 mm 3 mps 687 mmHg 87%
    03:00 -6°C° 0.1 mm 3 mps 688 mmHg 82%
    04:00 -6°C° 0.1 mm 3 mps 689 mmHg 77%
    05:00 -6°C° 0.1 mm 3 mps 690 mmHg 73%
    06:00 -7°C° 0 mm 3 mps 690 mmHg 74%
    07:00 -6°C° 0 mm 2 mps 691 mmHg 76%
    08:00 -6°C° 0 mm 2 mps 692 mmHg 78%
    09:00 -6°C° 0 mm 3 mps 693 mmHg 69%
    10:00 -6°C° 0 mm 5 mps 693 mmHg 60%
    11:00 -5°C° 0 mm 6 mps 693 mmHg 51%
    12:00 -5°C° 0 mm 6 mps 694 mmHg 51%
    13:00 -5°C° 0 mm 5 mps 694 mmHg 50%
    14:00 -5°C° 0 mm 5 mps 694 mmHg 49%
    15:00 -5°C° 0 mm 4 mps 694 mmHg 54%
    16:00 -6°C° 0 mm 3 mps 695 mmHg 58%
    17:00 -7°C° 0 mm 3 mps 695 mmHg 63%
    18:00 -7°C° 0 mm 2 mps 696 mmHg 66%
    19:00 -7°C° 0 mm 2 mps 696 mmHg 69%
    20:00 -8°C° 0 mm 2 mps 696 mmHg 73%
    21:00 -9°C° 0 mm 2 mps 696 mmHg 74%
    22:00 -8°C° 0 mm 1 mps 697 mmHg 75%
    23:00 -8°C° 0 mm 1 mps 697 mmHg 77%

    29 October, Monday

    Time Temperature Precipitation Wind Pressure Humidity
    00:00 -9°C° 0 mm 1 mps 697 mmHg 77%
    01:00 -9°C° 0 mm 1 mps 697 mmHg 78%
    02:00 -9°C° 0 mm 1 mps 697 mmHg 79%
    03:00 -9°C° 0 mm 1 mps 696 mmHg 80%
    04:00 -10°C° 0 mm 1 mps 696 mmHg 81%
    05:00 -10°C° 0 mm 1 mps 696 mmHg 82%
    06:00 -10°C° 0 mm 1 mps 696 mmHg 80%
    07:00 -9°C° 0 mm 1 mps 696 mmHg 79%
    08:00 -9°C° 0 mm 1 mps 696 mmHg 77%
    09:00 -7°C° 0 mm 1 mps 696 mmHg 71%
    10:00 -4°C° 0 mm 1 mps 696 mmHg 64%
    11:00 -3°C° 0 mm 1 mps 696 mmHg 58%
    12:00 -4°C° 0 mm 2 mps 695 mmHg 58%
    13:00 -3°C° 0 mm 2 mps 695 mmHg 58%
    14:00 -3°C° 0 mm 2 mps 695 mmHg 58%
    15:00 -4°C° 0 mm 2 mps 695 mmHg 65%
    16:00 -3°C° 0 mm 1 mps 695 mmHg 72%
    17:00 -4°C° 0 mm 1 mps 695 mmHg 78%
    18:00 -4°C° 0 mm 1 mps 695 mmHg 80%
    19:00 -4°C° 0 mm 1 mps 695 mmHg 81%
    20:00 -6°C° 0 mm 1 mps 695 mmHg 83%
    21:00 -6°C° 0 mm 1 mps 695 mmHg 83%
    22:00 -6°C° 0 mm 1 mps 695 mmHg 84%
    23:00 -6°C° 0 mm 1 mps 694 mmHg 85%
    Show more